SCP
0 0 0 0 0 0 0 0 0 0 0 0 0 0 0 0 0 0 0 0 0 0 0 0 0 0 0 0 0 0 0 0 0 0 0 0 0 0 0 0 0 0 0 0 0 0 0 0 0 0 0 0 0 0
0 0 0 0 0 0 0 0 0 0 0 0 0 0 0 0 0 0 0 0 0 0 0 0 0 0 0 0 0 0 0 0 0 0 0 0 0 0 0 0 0 0 0 0 0 0 0 0 0 0 0 0 0 0
0 0 0 0 0 0 0 0 0 0 0 0 0 0 0 0 0 0 0 0 0 0 0 0 0 0 0 0 0 0 0 0 0 0 0 0 0 0 0 0 0 0 0 0 0 0 0 0 0 0 0 0 0 0
0 0 0 0 0 0 0 0 0 0 0 0 0 0 0 0 0 0 0 0 0 0 0 0 0 0 0 0 0 0 0 0 0 0 0 0 0 0 0 0 0 0 0 0 0 0 0 0 0 0 0 0 0 0
0 0 0 0 0 0 0 0 0 0 0 0 0 0 0 0 0 0 0 0 0 0 0 0 0 0 0 0 0 0 0 0 0 0 0 0 0 0 0 0 0 0 0 0 0 0 0 0 0 0 0 0 0 0
0 0 0 0 0 0 0 0 0 0 0 0 0 0 0 0 0 0 0 0 0 0 0 0 0 0 0 0 0 0 0 0 0 0 0 0 0 0 0 0 0 0 0 0 0 0 0 0 0 0 0 0 0 0
0 0 0 0 0 0 0 0 0 0 0 0 0 0 0 0 0 0 0 0 0 0 0 0 0 0 0 0 0 0 0 0 0 0 0 0 0 0 0 0 0 0 0 0 0 0 0 0 0 0 0 0 0 0
0 0 0 0 0 0 0 0 0 0 0 0 0 0 0 0 0 0 0 0 0 0 0 0 0 0 0 0 0 0 0 0 0 0 0 0 0 0 0 0 0 0 0 0 0 0 0 0 0 0 0 0 0 0
0 0 0 0 0 0 0 0 0 0 0 0 0 0 0 0 0 0 0 0 0 0 0 0 0 0 0 0 0 0 0 0 0 0 0 0 0 0 0 0 0 0 0 0 0 0 0 0 0 0 0 0 0 0
0 0 0 0 0 0 0 0 0 0 0 0 0 0 0 0 0 0 0 0 0 0 0 0 0 0 0 0 0 0 0 0 0 0 0 0 0 0 0 0 0 0 0 0 0 0 0 0 0 0 0 0 0 0
0 0 0 0 0 0 0 0 0 0 0 0 0 0 0 0 0 0 0 0 0 0 0 0 0 0 0 0 0 0 0 0 0 0 0 0 0 0 0 0 0 0 0 0 0 0 0 0 0 0 0 0 0 0
0 0 0 0 0 0 0 0 0 0 0 0 0 0 0 0 0 0 0 0 0 0 0 0 0 0 0 0 0 0 0 0 0 0 0 0 0 0 0 0 0 0 0 0 0 0 0 0 0 0 0 0 0 0
0 0 0 0 0 0 0 0 0 0 0 0 0 0 0 0 0 0 0 0 0 0 0 0 0 0 0 0 0 0 0 0 0 0 0 0 0 0 0 0 0 0 0 0 0 0 0 0 0 0 0 0 0 0
0 0 0 0 0 0 0 0 0 0 0 0 0 0 0 0 0 0 0 0 0 0 0 0 0 0 0 0 0 0 0 0 0 0 0 0 0 0 0 0 0 0 0 0 0 0 0 0 0 0 0 0 0 0
0 0 0 -0 0 0 0 0 0 0 0 0 0 0 0 0 0 0 0 0 0 0 0 0 0 0 0 0 0 0 0 0 0 0 0 0 0 0 0 0 0 0 0 0 0 0 0 0 0 0 0 0 0 0
0 0 0 -0 -0 -0 0 0 0 0 0 0 0 0 0 0 0 0 0 0 0 0 0 0 0 0 0 0 0 0 0 0 0 0 0 0 0 0 0 0 0 0 0 0 0 0 0 0 0 0 0 0 0 0
0 0 -0 -0 -0 -0 0 0 0 0 0 0 0 0 0 0 0 0 0 0 0 0 0 0 0 0 0 0 0 0 0 0 0 0 0 0 0 0 0 0 0 0 0 0 0 0 0 0 0 0 0 0 0 0
0 0 -0 0 0 0 0 0 0 0 0 0 0 0 0 0 0 0 0 0 0 0 0 0 0 0 0 0 0 0 0 0 0 0 0 0 0 0 0 0 0 0 0 0 0 0 0 0 0 0 0 0 0 0
0 0 -0 -0 0 0 0 0 0 0 0 0 0 0 0 0 0 0 0 0 0 0 0 0 0 0 0 0 0 0 0 0 0 0 0 0 0 0 0 0 0 0 0 0 0 0 0 0 0 0 0 0 0 0
-0 -0 -0 -0 -0 -0 -0 0 0 0 0 0 0 0 0 0 0 0 0 0 0 0 0 0 0 0 0 0 0 0 0 0 0 0 0 0 0 0 0 0 0 0 0 0 0 0 0 0 0 0 0 0 0 0
-0 -0 -0 -0 -0 -0 -0 0 0 0 0 0 0 0 0 0 0 0 0 0 0 0 0 0 0 0 0 0 0 0 0 0 0 0 0 0 0 0 0 0 0 0 0 0 0 0 0 0 0 0 0 0 0 0
0 -0 -0 -0 -0 0 0 0 0 0 0 0 0 0 0 0 0 0 0 0 0 0 0 0 0 0 0 0 0 0 0 0 0 0 0 0 0 0 0 0 0 0 0 0 0 0 0 0 0 0 0 0 0 0
0 0 0 -0 -0 -0 0 0 0 0 0 0 0 0 0 0 0 0 0 0 0 0 0 0 0 0 0 0 0 0 0 0 0 0 0 0 0 0 0 0 0 0 0 0 0 0 0 0 0 0 0 0 0 0
0 0 0 0 0 0 0 0 0 0 0 0 0 0 0 0 0 0 0 0 0 0 0 0 0 0 0 0 0 0 0 0 0 0 0 0 0 0 0 0 0 0 0 0 0 0 0 0 0 0 0 0 0 0
0 0 0 0 0 0 0 0 0 0 0 0 0 0 0 0 0 0 0 0 0 0 0 0 0 0 0 0 0 0 0 0 0 0 0 0 0 0 0 0 0 0 0 0 0 0 0 0 0 -0 0 0 0 0
0 0 0 0 0 0 0 0 0 0 0 0 0 0 0 0 0 0 -0 -0 0 0 0 0 0 0 0 0 0 0 0 0 0 0 0 -0 -0 -0 0 -0 -0 -0 -0 -0 -0 -0 -0 -0 -0 -0 -0 0 0 0
0 0 0 0 0 0 0 0 0 0 0 0 0 0 0 0 0 0 0 -0 -0 -0 -0 -0 -0 0 0 0 0 0 0 0 0 0 0 -0 -0 -0 0 0 0 0 0 0 0 0 0 -0 -0 -0 0 0 -0 -0
0 0 0 0 0 0 0 0 0 0 0 0 0 0 0 0 0 0 0 0 -0 -0 -0 -0 0 0 0 0 0 0 0 0 0 0 0 0 0 0 0 0 0 0 0 0 0 0 0 0 0 -0 -0 -0 -0 -0
0 0 0 0 0 0 0 0 0 0 0 0 0 0 0 0 0 0 0 0 0 0 -0 0 0 0 0 0 0 0 0 0 0 0 0 0 0 0 0 0 0 0 0 0 0 0 0 0 0 0 0 0 0 0
0 0 0 0 0 0 0 0 0 0 0 0 0 0 0 0 0 0 0 0 0 0 0 0 0 0 0 0 0 0 0 0 0 0 0 0 0 0 0 0 0 0 0 0 0 0 0 0 0 0 0 0 0 0
0 0 0 0 0 0 0 0 0 0 0 0 0 0 0 0 0 0 0 0 0 0 0 0 0 0 0 0 0 0 0 0 0 0 0 0 0 -0 -0 -0 -0 0 0 0 0 0 0 0 0 0 0 0 0 0
0 0 0 0 0 0 0 0 0 0 0 0 0 0 0 0 0 0 0 0 0 0 0 0 0 0 0 0 0 0 0 0 0 0 0 0 0 0 0 0 0 0 -0 -0 -0 -0 -0 -0 -0 -0 -0 -0 -0 -0
0 0 0 0 0 0 0 0 0 0 0 0 0 0 0 0 0 0 0 0 0 0 0 0 0 0 0 0 0 0 0 0 0 0 0 0 0 0 0 0 0 0 0 0 0 0 0 0 0 0 0 0 0 0
Wind_Speed_500mb
33 36 32 27 26 25 26 24 23 22 21 20 20 21 26 30 28 24 29 30 36 9 12 21 24 15 14 20 8 12 10 8 5 9 8 7 9 15 10 14 18 23 21 14 14 12 32 19 11 15 5 8 12 18
36 36 32 33 34 27 23 24 28 28 25 26 25 22 23 22 21 24 23 24 34 22 8 35 41 46 38 38 29 34 2 9 12 7 6 2 5 6 11 12 10 15 14 14 25 16 2 34 4 29 8 10 5 8
37 39 39 34 32 29 26 24 25 28 29 29 30 30 26 23 22 24 24 25 30 29 19 30 49 44 55 42 35 17 13 9 11 8 3 1 7 6 12 13 10 9 14 7 7 25 23 23 35 18 22 19 5 13
38 40 40 42 36 33 30 26 21 17 19 23 25 31 34 34 33 33 33 31 31 12 8 15 40 49 59 49 55 53 32 26 22 14 5 5 6 12 3 3 5 6 22 21 19 25 13 15 23 28 32 30 28 30
40 41 43 42 43 41 36 29 25 22 16 17 21 21 24 28 30 33 34 39 43 30 3 2 13 26 36 58 64 62 57 43 23 7 9 10 5 7 4 4 9 10 10 10 11 12 5 3 3 4 24 35 29 29
43 43 45 43 42 42 38 36 28 24 20 21 21 23 26 28 27 23 14 48 51 47 13 7 12 20 27 42 62 78 67 47 47 24 10 16 15 13 8 20 32 51 49 46 28 36 17 10 8 10 12 11 10 13
46 45 47 46 47 44 42 37 30 25 24 20 21 24 27 29 30 38 11 10 30 56 15 5 7 27 37 35 43 50 68 37 40 41 22 13 18 23 14 24 30 37 31 23 30 17 13 23 22 30 24 20 26 33
47 46 47 47 50 47 44 39 30 26 23 23 20 18 20 24 29 45 60 31 15 55 21 8 6 6 33 18 13 28 24 30 34 37 15 10 12 11 13 31 61 54 46 43 51 53 53 46 43 40 41 37 36 43
50 49 47 46 50 49 45 37 31 26 22 16 15 16 16 20 17 26 27 43 57 46 10 13 16 14 26 26 25 19 25 13 19 9 12 21 16 16 20 29 39 67 59 60 65 56 64 66 65 66 64 55 49 50
43 44 44 48 47 48 41 35 30 27 19 19 14 8 9 13 22 16 10 13 30 35 25 9 19 12 27 30 13 10 16 11 11 15 15 8 15 26 34 51 69 87 101 72 52 42 54 62 70 75 72 65 50 50
38 40 45 48 46 43 39 34 29 27 22 15 14 13 14 16 19 13 12 12 8 8 15 13 28 12 16 14 12 23 9 9 9 12 12 11 12 26 74 84 76 51 51 43 46 49 43 48 57 56 60 57 46 43
31 35 36 48 43 36 35 32 28 33 16 17 10 8 5 6 6 6 7 8 7 2 5 5 9 16 17 15 8 11 9 11 10 14 11 8 20 43 24 40 49 48 45 41 37 38 38 41 44 45 47 50 53 56
26 29 31 35 34 33 32 34 31 28 24 14 7 7 5 6 11 11 9 6 6 8 13 12 4 13 12 15 6 10 12 12 10 10 6 10 4 6 6 11 16 21 28 34 35 38 40 42 46 52 54 54 56 59
22 28 32 34 33 31 33 34 37 37 20 11 10 8 8 7 8 2 4 3 2 4 8 7 8 5 4 10 7 10 6 8 11 14 14 5 13 16 14 12 13 16 19 22 24 27 31 35 39 43 46 44 47 49
18 19 23 27 32 38 39 37 52 46 17 9 8 9 12 7 7 5 3 1 3 9 8 5 11 8 7 7 7 7 10 9 13 12 3 11 15 18 18 18 19 20 21 21 24 28 30 32 36 39 38 42 45 48
21 18 18 25 28 36 43 41 46 39 16 9 7 5 5 4 4 5 3 3 4 7 4 6 5 7 9 5 9 14 10 14 5 5 10 15 17 19 20 20 22 24 26 28 29 32 34 36 40 45 43 41 42 45
39 26 46 31 29 22 28 41 14 9 11 7 5 7 8 9 8 5 3 2 8 3 2 2 7 6 9 7 8 6 3 5 8 11 11 16 22 24 23 25 27 30 31 32 35 37 40 41 45 50 52 47 48 49
30 50 46 25 27 25 20 7 8 10 11 8 2 5 7 8 7 4 3 3 2 1 4 3 8 6 7 7 3 4 5 11 11 12 19 20 18 20 26 32 32 33 34 35 37 39 40 41 46 48 51 54 58 56
56 47 38 35 21 12 8 8 8 8 9 9 14 10 9 12 14 10 5 1 2 1 3 3 7 4 2 2 2 8 11 10 13 20 24 16 17 25 31 28 30 30 33 35 37 39 41 41 46 49 51 51 56 56
59 46 36 27 20 7 10 9 9 13 6 8 10 10 9 8 6 10 12 7 4 3 4 3 3 3 2 3 8 15 16 17 19 22 16 5 17 29 29 30 32 34 34 35 35 36 39 40 36 40 44 46 52 55
44 36 30 20 8 14 13 8 11 9 12 10 14 5 9 8 6 6 7 8 8 7 3 5 4 6 11 13 13 16 17 16 15 15 19 25 28 28 27 28 30 30 33 35 37 39 39 42 43 40 41 42 42 44
29 30 16 10 9 10 14 12 13 12 8 10 8 6 7 4 4 4 4 10 6 4 5 7 10 15 15 12 13 16 18 17 16 18 19 22 22 22 23 29 33 34 34 35 38 42 42 42 43 41 39 40 38 38
31 17 8 7 9 10 6 9 6 5 5 6 5 5 4 3 3 3 5 5 3 5 14 13 15 14 14 9 10 13 13 12 11 13 14 15 16 18 22 26 32 36 37 33 35 37 40 40 41 39 36 34 33 32
20 7 11 11 15 5 4 7 7 7 7 3 4 6 4 2 1 2 3 2 2 7 13 15 13 9 5 7 9 12 11 9 8 9 14 16 16 15 18 21 23 31 35 36 36 36 36 38 37 35 31 27 24 22
9 18 12 10 12 5 6 4 4 4 5 2 4 4 4 1 2 2 1 1 6 8 15 16 11 7 5 7 9 10 9 7 6 8 16 19 19 15 14 17 19 26 33 32 33 35 35 35 34 34 31 27 24 20
15 17 11 7 7 5 4 4 4 4 3 4 3 2 1 2 2 3 1 5 6 9 16 15 16 10 6 10 9 8 7 6 6 8 14 18 21 22 21 20 22 23 28 31 33 34 34 32 31 29 26 22 16 16
10 8 10 14 6 4 7 7 3 2 4 3 2 2 2 4 3 3 1 5 8 12 15 9 11 10 9 9 8 7 7 7 9 10 13 18 21 20 20 20 21 23 25 27 28 31 30 27 24 23 23 23 23 22
9 7 6 7 10 11 5 3 4 3 2 0 1 3 3 3 2 2 3 9 12 10 12 4 5 6 9 12 14 13 11 11 9 10 11 12 13 18 19 19 20 21 19 18 22 26 27 23 21 21 23 24 26 27
10 7 6 7 6 8 6 5 3 1 3 1 1 3 3 2 6 4 5 7 7 7 8 6 4 5 7 9 12 18 18 15 10 11 10 11 13 15 16 15 16 17 17 17 16 18 19 18 18 19 21 24 26 26
5 5 6 5 6 8 6 3 2 2 5 6 8 9 8 8 16 16 12 9 6 4 5 6 6 5 7 8 8 10 16 16 15 12 9 11 13 14 14 15 16 17 18 18 18 18 17 17 17 18 19 21 23 25
4 5 6 6 5 5 7 14 16 14 9 11 16 11 7 6 9 21 23 18 12 8 4 3 4 7 8 11 11 9 12 14 14 13 12 12 12 14 16 16 15 15 16 17 17 18 18 18 19 20 20 20 22 23
2 1 5 6 4 8 2 2 2 3 3 2 3 3 4 4 3 5 16 17 16 12 10 8 7 6 7 9 9 10 11 12 13 13 13 12 12 13 14 14 13 14 14 14 14 15 16 17 18 18 18 19 19 20
5 8 9 7 5 5 6 5 3 3 2 2 2 3 3 3 3 2 8 16 19 20 17 10 8 9 7 9 9 10 12 13 14 15 16 15 14 13 13 13 13 13 13 13 13 12 12 12 12 13 14 15 15 15
Wind_Direction_500mb
215 205 202 204 200 201 198 197 197 198 200 197 199 206 215 219 218 209 213 209 207 199 220 208 203 163 156 175 156 144 129 182 163 204 204 160 190 194 179 162 169 168 171 195 215 223 256 155 95 195 197 105 98 124
213 206 207 203 194 192 197 202 210 208 203 204 209 207 206 203 205 212 221 214 214 216 242 224 221 227 229 216 201 172 208 153 175 199 193 134 174 165 177 210 191 194 192 176 197 213 22 180 139 200 106 75 102 139
214 212 208 201 201 196 197 200 208 212 216 217 216 211 211 214 207 210 213 213 205 232 269 238 231 232 226 226 226 180 225 199 193 192 160 148 228 173 188 230 141 240 193 232 134 246 242 217 225 228 230 265 243 225
222 220 214 205 202 200 199 200 203 205 207 213 217 221 224 224 224 224 225 218 206 177 243 239 242 238 228 223 223 235 235 224 227 200 206 196 220 193 221 17 239 195 153 215 247 274 300 253 236 244 259 271 284 282
222 220 218 215 211 205 200 204 204 207 210 215 214 214 218 217 219 229 236 231 225 201 271 294 273 249 235 225 224 229 231 222 203 176 220 231 226 176 167 125 235 212 213 204 244 267 277 333 337 318 238 243 256 258
225 222 218 215 215 215 212 208 211 211 208 219 231 233 230 231 223 222 253 241 233 225 248 260 243 231 226 226 225 226 231 228 222 220 225 236 229 191 242 239 247 246 246 249 263 274 289 241 209 171 181 194 235 273
223 222 218 216 216 214 209 208 214 211 216 230 232 245 236 233 218 212 207 196 208 214 207 235 240 215 221 221 227 226 233 230 224 231 228 235 217 203 236 241 247 230 225 236 241 238 237 238 239 231 236 255 275 284
216 218 219 217 210 206 204 206 209 214 223 234 249 245 228 231 239 241 235 214 173 186 194 222 204 197 195 184 200 210 210 214 218 223 190 200 174 224 220 223 248 258 261 250 248 251 251 252 262 252 250 263 283 285
210 210 210 210 205 200 197 200 205 209 222 227 229 232 246 244 229 242 252 237 228 219 197 191 209 228 180 193 195 182 206 218 198 221 216 184 209 213 214 218 233 248 245 248 255 249 252 262 265 259 262 262 266 271
198 195 203 205 204 182 191 196 196 202 203 213 223 221 234 213 229 227 226 207 205 210 217 206 188 189 175 179 182 180 190 224 216 215 181 235 222 226 230 236 240 246 250 254 254 241 242 246 252 252 254 264 260 246
185 190 186 177 178 185 190 192 193 194 196 198 194 219 227 217 208 202 218 208 204 190 172 233 198 165 199 184 187 200 186 195 226 203 206 210 235 226 233 234 237 245 250 251 243 243 247 242 248 251 255 259 245 249
151 167 177 181 181 189 193 192 197 195 194 192 192 189 207 216 253 285 231 154 218 200 56 277 187 187 163 173 193 172 196 183 231 144 193 221 232 226 266 234 239 243 249 252 251 247 244 243 247 248 246 248 259 270
176 181 188 192 194 191 197 187 200 198 190 172 186 178 195 174 223 226 210 180 185 9 1 354 223 156 155 177 170 185 207 199 121 192 205 228 87 37 306 260 258 258 261 264 262 260 259 256 256 258 259 259 260 261
189 201 200 198 198 197 194 191 198 186 173 181 162 213 217 188 231 7 46 57 85 281 323 318 271 225 176 184 150 197 156 140 199 187 203 161 18 351 347 332 309 294 289 287 283 276 268 264 261 262 265 265 263 262
192 195 199 197 201 195 196 187 193 190 188 174 173 217 201 98 80 102 133 159 351 326 330 276 265 246 205 209 201 132 168 205 201 204 95 22 355 356 351 342 330 321 315 307 296 289 284 281 276 269 265 264 265 268
168 173 179 179 186 200 201 189 190 199 165 130 92 142 86 183 152 175 130 133 321 336 288 258 279 265 238 237 169 206 187 209 165 32 358 344 341 340 334 332 328 321 314 307 301 297 293 291 291 289 284 280 277 276
166 153 171 174 177 176 168 182 164 106 95 86 84 76 74 64 62 98 113 98 333 354 250 274 206 255 316 239 206 18 245 49 347 325 326 328 332 330 328 327 327 322 315 309 304 301 300 298 295 294 293 294 290 286
165 168 184 172 166 163 158 133 98 80 73 73 86 62 71 79 96 85 32 1 20 16 312 297 319 232 244 251 149 41 2 318 305 304 318 323 327 330 329 322 320 319 315 312 309 307 305 303 298 298 296 296 293 292
166 177 170 161 170 150 108 74 65 91 78 95 105 92 90 94 69 57 41 25 102 139 303 272 248 246 111 73 324 323 326 323 310 312 308 313 317 325 327 322 320 319 318 317 318 316 310 304 302 301 300 299 295 293
165 170 167 157 163 120 91 65 76 93 106 118 106 104 90 86 102 55 45 54 56 17 45 30 39 56 1 312 299 295 300 306 312 315 321 310 320 326 330 328 330 331 330 329 325 322 317 313 309 304 300 297 294 294
165 152 145 151 104 73 87 91 67 82 115 99 121 101 99 94 64 46 36 23 56 34 42 23 351 311 296 289 291 298 297 296 289 285 299 310 322 327 331 335 337 341 340 337 332 330 329 324 320 315 308 302 298 296
152 153 132 104 87 80 78 63 101 107 88 111 112 89 94 95 74 40 39 55 64 42 339 309 308 306 303 291 289 302 300 296 297 302 305 308 319 332 343 348 348 348 348 343 338 334 332 332 327 321 315 309 304 299
151 137 97 83 90 63 69 99 96 72 107 131 115 97 66 84 73 69 82 70 97 338 337 319 314 306 293 279 296 314 318 313 308 310 317 319 319 325 332 340 349 349 348 352 345 342 342 341 336 329 324 320 313 307
134 106 42 48 42 84 86 50 74 91 102 94 103 115 127 108 117 86 105 122 329 325 343 341 341 341 296 287 295 308 318 323 323 322 332 333 328 328 334 335 340 353 353 350 353 352 352 350 349 345 340 333 327 323
109 15 24 38 27 49 62 58 36 73 89 49 113 123 127 323 121 91 124 101 337 346 354 357 352 342 327 314 308 311 318 327 334 336 346 351 349 347 349 356 351 351 355 357 4 3 3 1 0 359 356 353 352 343
70 5 33 3 17 33 18 97 54 79 97 107 68 34 5 134 125 150 95 334 334 341 346 347 351 356 355 350 350 358 7 13 9 8 2 7 8 8 2 1 5 7 4 7 6 7 7 7 8 11 15 17 17 33
83 36 35 41 63 80 91 66 74 53 88 109 128 146 144 128 162 118 321 316 339 337 319 333 355 351 353 360 355 335 321 334 337 341 356 7 10 9 2 357 1 5 17 17 16 16 10 10 14 22 31 39 45 53
90 52 76 14 57 39 94 64 30 60 102 149 226 69 103 35 96 303 253 306 325 348 306 312 18 15 24 22 9 359 347 333 335 350 352 350 347 358 2 358 1 5 4 6 14 21 14 16 24 34 47 56 62 66
54 62 74 54 60 51 43 25 3 310 172 186 67 99 98 58 353 354 341 342 4 3 304 306 330 346 342 343 4 16 18 23 26 22 14 354 354 1 1 5 10 7 1 0 4 11 10 20 33 45 58 65 69 75
48 56 90 73 53 28 8 344 321 148 137 121 108 105 85 87 64 56 47 44 43 29 350 346 13 12 359 353 354 7 19 26 32 34 25 11 5 5 10 15 15 13 16 18 25 32 34 43 50 55 61 71 76 80
86 74 82 61 77 75 84 96 96 89 85 81 94 104 126 133 63 45 39 42 44 45 31 352 351 5 10 14 17 16 16 20 19 18 19 17 14 13 8 8 10 15 18 24 32 37 43 47 53 59 63 68 74 77
52 65 135 110 158 186 195 133 107 126 166 101 98 98 93 77 58 43 24 33 36 35 30 23 13 3 11 14 16 17 11 8 10 8 3 358 0 1 4 5 5 9 14 18 23 29 34 40 44 48 53 59 64 70
73 67 78 107 127 167 176 160 177 134 101 100 102 106 86 64 79 47 24 25 27 25 25 25 23 18 4 7 12 9 9 8 7 6 5 6 359 355 356 355 358 2 7 11 14 18 22 27 32 36 39 43 47 53
Wind_Speed_850mb
33 36 32 27 26 25 26 24 23 22 21 20 20 21 26 30 28 24 29 30 36 9 12 21 24 15 14 20 8 12 10 8 5 9 8 7 9 15 10 14 18 23 21 14 14 12 32 19 11 15 5 8 12 18
36 36 32 33 34 27 23 24 28 28 25 26 25 22 23 22 21 24 23 24 34 22 8 35 41 46 38 38 29 34 2 9 12 7 6 2 5 6 11 12 10 15 14 14 25 16 2 34 4 29 8 10 5 8
37 39 39 34 32 29 26 24 25 28 29 29 30 30 26 23 22 24 24 25 30 29 19 30 49 44 55 42 35 17 13 9 11 8 3 1 7 6 12 13 10 9 14 7 7 25 23 23 35 18 22 19 5 13
38 40 40 42 36 33 30 26 21 17 19 23 25 31 34 34 33 33 33 31 31 12 8 15 40 49 59 49 55 53 32 26 22 14 5 5 6 12 3 3 5 6 22 21 19 25 13 15 23 28 32 30 28 30
40 41 43 42 43 41 36 29 25 22 16 17 21 21 24 28 30 33 34 39 43 30 3 2 13 26 36 58 64 62 57 43 23 7 9 10 5 7 4 4 9 10 10 10 11 12 5 3 3 4 24 35 29 29
43 43 45 43 42 42 38 36 28 24 20 21 21 23 26 28 27 23 14 48 51 47 13 7 12 20 27 42 62 78 67 47 47 24 10 16 15 13 8 20 32 51 49 46 28 36 17 10 8 10 12 11 10 13
46 45 47 46 47 44 42 37 30 25 24 20 21 24 27 29 30 38 11 10 30 56 15 5 7 27 37 35 43 50 68 37 40 41 22 13 18 23 14 24 30 37 31 23 30 17 13 23 22 30 24 20 26 33
47 46 47 47 50 47 44 39 30 26 23 23 20 18 20 24 29 45 60 31 15 55 21 8 6 6 33 18 13 28 24 30 34 37 15 10 12 11 13 31 61 54 46 43 51 53 53 46 43 40 41 37 36 43
50 49 47 46 50 49 45 37 31 26 22 16 15 16 16 20 17 26 27 43 57 46 10 13 16 14 26 26 25 19 25 13 19 9 12 21 16 16 20 29 39 67 59 60 65 56 64 66 65 66 64 55 49 50
43 44 44 48 47 48 41 35 30 27 19 19 14 8 9 13 22 16 10 13 30 35 25 9 19 12 27 30 13 10 16 11 11 15 15 8 15 26 34 51 69 87 101 72 52 42 54 62 70 75 72 65 50 50
38 40 45 48 46 43 39 34 29 27 22 15 14 13 14 16 19 13 12 12 8 8 15 13 28 12 16 14 12 23 9 9 9 12 12 11 12 26 74 84 76 51 51 43 46 49 43 48 57 56 60 57 46 43
31 35 36 48 43 36 35 32 28 33 16 17 10 8 5 6 6 6 7 8 7 2 5 5 9 16 17 15 8 11 9 11 10 14 11 8 20 43 24 40 49 48 45 41 37 38 38 41 44 45 47 50 53 56
26 29 31 35 34 33 32 34 31 28 24 14 7 7 5 6 11 11 9 6 6 8 13 12 4 13 12 15 6 10 12 12 10 10 6 10 4 6 6 11 16 21 28 34 35 38 40 42 46 52 54 54 56 59
22 28 32 34 33 31 33 34 37 37 20 11 10 8 8 7 8 2 4 3 2 4 8 7 8 5 4 10 7 10 6 8 11 14 14 5 13 16 14 12 13 16 19 22 24 27 31 35 39 43 46 44 47 49
18 19 23 27 32 38 39 37 52 46 17 9 8 9 12 7 7 5 3 1 3 9 8 5 11 8 7 7 7 7 10 9 13 12 3 11 15 18 18 18 19 20 21 21 24 28 30 32 36 39 38 42 45 48
21 18 18 25 28 36 43 41 46 39 16 9 7 5 5 4 4 5 3 3 4 7 4 6 5 7 9 5 9 14 10 14 5 5 10 15 17 19 20 20 22 24 26 28 29 32 34 36 40 45 43 41 42 45
39 26 46 31 29 22 28 41 14 9 11 7 5 7 8 9 8 5 3 2 8 3 2 2 7 6 9 7 8 6 3 5 8 11 11 16 22 24 23 25 27 30 31 32 35 37 40 41 45 50 52 47 48 49
30 50 46 25 27 25 20 7 8 10 11 8 2 5 7 8 7 4 3 3 2 1 4 3 8 6 7 7 3 4 5 11 11 12 19 20 18 20 26 32 32 33 34 35 37 39 40 41 46 48 51 54 58 56
56 47 38 35 21 12 8 8 8 8 9 9 14 10 9 12 14 10 5 1 2 1 3 3 7 4 2 2 2 8 11 10 13 20 24 16 17 25 31 28 30 30 33 35 37 39 41 41 46 49 51 51 56 56
59 46 36 27 20 7 10 9 9 13 6 8 10 10 9 8 6 10 12 7 4 3 4 3 3 3 2 3 8 15 16 17 19 22 16 5 17 29 29 30 32 34 34 35 35 36 39 40 36 40 44 46 52 55
44 36 30 20 8 14 13 8 11 9 12 10 14 5 9 8 6 6 7 8 8 7 3 5 4 6 11 13 13 16 17 16 15 15 19 25 28 28 27 28 30 30 33 35 37 39 39 42 43 40 41 42 42 44
29 30 16 10 9 10 14 12 13 12 8 10 8 6 7 4 4 4 4 10 6 4 5 7 10 15 15 12 13 16 18 17 16 18 19 22 22 22 23 29 33 34 34 35 38 42 42 42 43 41 39 40 38 38
31 17 8 7 9 10 6 9 6 5 5 6 5 5 4 3 3 3 5 5 3 5 14 13 15 14 14 9 10 13 13 12 11 13 14 15 16 18 22 26 32 36 37 33 35 37 40 40 41 39 36 34 33 32
20 7 11 11 15 5 4 7 7 7 7 3 4 6 4 2 1 2 3 2 2 7 13 15 13 9 5 7 9 12 11 9 8 9 14 16 16 15 18 21 23 31 35 36 36 36 36 38 37 35 31 27 24 22
9 18 12 10 12 5 6 4 4 4 5 2 4 4 4 1 2 2 1 1 6 8 15 16 11 7 5 7 9 10 9 7 6 8 16 19 19 15 14 17 19 26 33 32 33 35 35 35 34 34 31 27 24 20
15 17 11 7 7 5 4 4 4 4 3 4 3 2 1 2 2 3 1 5 6 9 16 15 16 10 6 10 9 8 7 6 6 8 14 18 21 22 21 20 22 23 28 31 33 34 34 32 31 29 26 22 16 16
10 8 10 14 6 4 7 7 3 2 4 3 2 2 2 4 3 3 1 5 8 12 15 9 11 10 9 9 8 7 7 7 9 10 13 18 21 20 20 20 21 23 25 27 28 31 30 27 24 23 23 23 23 22
9 7 6 7 10 11 5 3 4 3 2 0 1 3 3 3 2 2 3 9 12 10 12 4 5 6 9 12 14 13 11 11 9 10 11 12 13 18 19 19 20 21 19 18 22 26 27 23 21 21 23 24 26 27
10 7 6 7 6 8 6 5 3 1 3 1 1 3 3 2 6 4 5 7 7 7 8 6 4 5 7 9 12 18 18 15 10 11 10 11 13 15 16 15 16 17 17 17 16 18 19 18 18 19 21 24 26 26
5 5 6 5 6 8 6 3 2 2 5 6 8 9 8 8 16 16 12 9 6 4 5 6 6 5 7 8 8 10 16 16 15 12 9 11 13 14 14 15 16 17 18 18 18 18 17 17 17 18 19 21 23 25
4 5 6 6 5 5 7 14 16 14 9 11 16 11 7 6 9 21 23 18 12 8 4 3 4 7 8 11 11 9 12 14 14 13 12 12 12 14 16 16 15 15 16 17 17 18 18 18 19 20 20 20 22 23
2 1 5 6 4 8 2 2 2 3 3 2 3 3 4 4 3 5 16 17 16 12 10 8 7 6 7 9 9 10 11 12 13 13 13 12 12 13 14 14 13 14 14 14 14 15 16 17 18 18 18 19 19 20
5 8 9 7 5 5 6 5 3 3 2 2 2 3 3 3 3 2 8 16 19 20 17 10 8 9 7 9 9 10 12 13 14 15 16 15 14 13 13 13 13 13 13 13 13 12 12 12 12 13 14 15 15 15
Wind_Direction_850mb
215 205 202 204 200 201 198 197 197 198 200 197 199 206 215 219 218 209 213 209 207 199 220 208 203 163 156 175 156 144 129 182 163 204 204 160 190 194 179 162 169 168 171 195 215 223 256 155 95 195 197 105 98 124
213 206 207 203 194 192 197 202 210 208 203 204 209 207 206 203 205 212 221 214 214 216 242 224 221 227 229 216 201 172 208 153 175 199 193 134 174 165 177 210 191 194 192 176 197 213 22 180 139 200 106 75 102 139
214 212 208 201 201 196 197 200 208 212 216 217 216 211 211 214 207 210 213 213 205 232 269 238 231 232 226 226 226 180 225 199 193 192 160 148 228 173 188 230 141 240 193 232 134 246 242 217 225 228 230 265 243 225
222 220 214 205 202 200 199 200 203 205 207 213 217 221 224 224 224 224 225 218 206 177 243 239 242 238 228 223 223 235 235 224 227 200 206 196 220 193 221 17 239 195 153 215 247 274 300 253 236 244 259 271 284 282
222 220 218 215 211 205 200 204 204 207 210 215 214 214 218 217 219 229 236 231 225 201 271 294 273 249 235 225 224 229 231 222 203 176 220 231 226 176 167 125 235 212 213 204 244 267 277 333 337 318 238 243 256 258
225 222 218 215 215 215 212 208 211 211 208 219 231 233 230 231 223 222 253 241 233 225 248 260 243 231 226 226 225 226 231 228 222 220 225 236 229 191 242 239 247 246 246 249 263 274 289 241 209 171 181 194 235 273
223 222 218 216 216 214 209 208 214 211 216 230 232 245 236 233 218 212 207 196 208 214 207 235 240 215 221 221 227 226 233 230 224 231 228 235 217 203 236 241 247 230 225 236 241 238 237 238 239 231 236 255 275 284
216 218 219 217 210 206 204 206 209 214 223 234 249 245 228 231 239 241 235 214 173 186 194 222 204 197 195 184 200 210 210 214 218 223 190 200 174 224 220 223 248 258 261 250 248 251 251 252 262 252 250 263 283 285
210 210 210 210 205 200 197 200 205 209 222 227 229 232 246 244 229 242 252 237 228 219 197 191 209 228 180 193 195 182 206 218 198 221 216 184 209 213 214 218 233 248 245 248 255 249 252 262 265 259 262 262 266 271
198 195 203 205 204 182 191 196 196 202 203 213 223 221 234 213 229 227 226 207 205 210 217 206 188 189 175 179 182 180 190 224 216 215 181 235 222 226 230 236 240 246 250 254 254 241 242 246 252 252 254 264 260 246
185 190 186 177 178 185 190 192 193 194 196 198 194 219 227 217 208 202 218 208 204 190 172 233 198 165 199 184 187 200 186 195 226 203 206 210 235 226 233 234 237 245 250 251 243 243 247 242 248 251 255 259 245 249
151 167 177 181 181 189 193 192 197 195 194 192 192 189 207 216 253 285 231 154 218 200 56 277 187 187 163 173 193 172 196 183 231 144 193 221 232 226 266 234 239 243 249 252 251 247 244 243 247 248 246 248 259 270
176 181 188 192 194 191 197 187 200 198 190 172 186 178 195 174 223 226 210 180 185 9 1 354 223 156 155 177 170 185 207 199 121 192 205 228 87 37 306 260 258 258 261 264 262 260 259 256 256 258 259 259 260 261
189 201 200 198 198 197 194 191 198 186 173 181 162 213 217 188 231 7 46 57 85 281 323 318 271 225 176 184 150 197 156 140 199 187 203 161 18 351 347 332 309 294 289 287 283 276 268 264 261 262 265 265 263 262
192 195 199 197 201 195 196 187 193 190 188 174 173 217 201 98 80 102 133 159 351 326 330 276 265 246 205 209 201 132 168 205 201 204 95 22 355 356 351 342 330 321 315 307 296 289 284 281 276 269 265 264 265 268
168 173 179 179 186 200 201 189 190 199 165 130 92 142 86 183 152 175 130 133 321 336 288 258 279 265 238 237 169 206 187 209 165 32 358 344 341 340 334 332 328 321 314 307 301 297 293 291 291 289 284 280 277 276
166 153 171 174 177 176 168 182 164 106 95 86 84 76 74 64 62 98 113 98 333 354 250 274 206 255 316 239 206 18 245 49 347 325 326 328 332 330 328 327 327 322 315 309 304 301 300 298 295 294 293 294 290 286
165 168 184 172 166 163 158 133 98 80 73 73 86 62 71 79 96 85 32 1 20 16 312 297 319 232 244 251 149 41 2 318 305 304 318 323 327 330 329 322 320 319 315 312 309 307 305 303 298 298 296 296 293 292
166 177 170 161 170 150 108 74 65 91 78 95 105 92 90 94 69 57 41 25 102 139 303 272 248 246 111 73 324 323 326 323 310 312 308 313 317 325 327 322 320 319 318 317 318 316 310 304 302 301 300 299 295 293
165 170 167 157 163 120 91 65 76 93 106 118 106 104 90 86 102 55 45 54 56 17 45 30 39 56 1 312 299 295 300 306 312 315 321 310 320 326 330 328 330 331 330 329 325 322 317 313 309 304 300 297 294 294
165 152 145 151 104 73 87 91 67 82 115 99 121 101 99 94 64 46 36 23 56 34 42 23 351 311 296 289 291 298 297 296 289 285 299 310 322 327 331 335 337 341 340 337 332 330 329 324 320 315 308 302 298 296
152 153 132 104 87 80 78 63 101 107 88 111 112 89 94 95 74 40 39 55 64 42 339 309 308 306 303 291 289 302 300 296 297 302 305 308 319 332 343 348 348 348 348 343 338 334 332 332 327 321 315 309 304 299
151 137 97 83 90 63 69 99 96 72 107 131 115 97 66 84 73 69 82 70 97 338 337 319 314 306 293 279 296 314 318 313 308 310 317 319 319 325 332 340 349 349 348 352 345 342 342 341 336 329 324 320 313 307
134 106 42 48 42 84 86 50 74 91 102 94 103 115 127 108 117 86 105 122 329 325 343 341 341 341 296 287 295 308 318 323 323 322 332 333 328 328 334 335 340 353 353 350 353 352 352 350 349 345 340 333 327 323
109 15 24 38 27 49 62 58 36 73 89 49 113 123 127 323 121 91 124 101 337 346 354 357 352 342 327 314 308 311 318 327 334 336 346 351 349 347 349 356 351 351 355 357 4 3 3 1 0 359 356 353 352 343
70 5 33 3 17 33 18 97 54 79 97 107 68 34 5 134 125 150 95 334 334 341 346 347 351 356 355 350 350 358 7 13 9 8 2 7 8 8 2 1 5 7 4 7 6 7 7 7 8 11 15 17 17 33
83 36 35 41 63 80 91 66 74 53 88 109 128 146 144 128 162 118 321 316 339 337 319 333 355 351 353 360 355 335 321 334 337 341 356 7 10 9 2 357 1 5 17 17 16 16 10 10 14 22 31 39 45 53
90 52 76 14 57 39 94 64 30 60 102 149 226 69 103 35 96 303 253 306 325 348 306 312 18 15 24 22 9 359 347 333 335 350 352 350 347 358 2 358 1 5 4 6 14 21 14 16 24 34 47 56 62 66
54 62 74 54 60 51 43 25 3 310 172 186 67 99 98 58 353 354 341 342 4 3 304 306 330 346 342 343 4 16 18 23 26 22 14 354 354 1 1 5 10 7 1 0 4 11 10 20 33 45 58 65 69 75
48 56 90 73 53 28 8 344 321 148 137 121 108 105 85 87 64 56 47 44 43 29 350 346 13 12 359 353 354 7 19 26 32 34 25 11 5 5 10 15 15 13 16 18 25 32 34 43 50 55 61 71 76 80
86 74 82 61 77 75 84 96 96 89 85 81 94 104 126 133 63 45 39 42 44 45 31 352 351 5 10 14 17 16 16 20 19 18 19 17 14 13 8 8 10 15 18 24 32 37 43 47 53 59 63 68 74 77
52 65 135 110 158 186 195 133 107 126 166 101 98 98 93 77 58 43 24 33 36 35 30 23 13 3 11 14 16 17 11 8 10 8 3 358 0 1 4 5 5 9 14 18 23 29 34 40 44 48 53 59 64 70
73 67 78 107 127 167 176 160 177 134 101 100 102 106 86 64 79 47 24 25 27 25 25 25 23 18 4 7 12 9 9 8 7 6 5 6 359 355 356 355 358 2 7 11 14 18 22 27 32 36 39 43 47 53